Henderson, MN (56044)

3:43 PM CDT on September 29, 2016 (GMT -0500)
MesoWest | | Change Station
Active Advisory: Flood Warning Active Notice: Public Information Statement

Elev 724 ft 44.58 °N, 93.89 °W | Updated 1 hour ago

Clear
Clear
69.0 °F
Feels Like 69.0 °F
N
0.0
Wind Variable Wind from North
Gusts 0.0 mph

Today
High -- | Low -- °F
--% Chance of Precip.
Yesterday
High -- | Low -- °F
Precip. -- in
Pressure 30.42 in
Visibility 10.0 miles
Clouds Clear
Dew Point Not available.
Humidity Not available.
Rainfall in
Snow Depth Not available.
7:11 AM 6:58 PM
Waning Crescent, 1% visible
METAR KGYL 292034Z AUTO 08005KT 10SM CLR 18/12 A3042 RMK AO2 T01840117
Pressure 30.42 in
Visibility 10.0 miles
Clouds Clear
Dew Point Not available.
Humidity Not available.
Rainfall in
Snow Depth Not available.
7:11 AM 6:58 PM
Waning Crescent, 1% visible
METAR KGYL 292034Z AUTO 08005KT 10SM CLR 18/12 A3042 RMK AO2 T01840117

10-Day Weather Forecast

Almanac

Astronomy

Sep. 29, 2016 Rise Set
Actual Time
Civil Twilight
Nautical Twilight
Astronomical Twilight
Moon
Length of Visible Light
Length of Day
Tomorrow will be .
, % of the Moon is Illuminated

Today's Extremes

State Highs State Lows

Community

WunderPhotos

Upload Photos

1,942,564 photos uploaded!

WunderBlog® & News

Nearby

Air Quality

  Air Quality AQ Index Pollutant
Not available.

Snow Depth

Station Depth Elevation

Earthquake Activity

City Distance Mag. Time & Date
Minimum magnitude displayed is 2.5.

Coastal Water Temperatures

Place Temperature

Stations

Nearby Weather Stations

Station Location Temp. Windchill Dew Point Humidity Wind Precip. Elev Updated Type
                   

Watches & Warnings

Flood Warning
Issued: 9:32 AM CDT Sep. 29, 2016 – National Weather Service

The Flood Warning continues for
the Minnesota river at Henderson.
* Until late Friday night.
* At 8:30 am Thursday the stage was 732.5 feet.
* Minor flooding is occurring and minor flooding is forecast.
* Flood stage is 732.0 feet.
* Forecast... the river will continue to fall to below flood stage by
tomorrow morning.
* Impact... at 732.5 feet... water begins encroaching on Highway 19 east
of Henderson.
* Impact... at 732.0 feet... water begins impacting residences and
agricultural buildings north and south of Henderson.


Lat... Lon 4446 9399 4446 9388 4460 9379 4466 9382 4461 9393